SWOT

Last updated on Sat Oct 25 2025 00:02:33 GMT+0000 (Coordinated Universal Time)

1 54754U 22173A 25297.68944843 .00000172 00000+0 11848-3 0 9995 2 54754 77.6124 353.2098 0000274 227.3430 132.7698 14.00170086146192
UTC large
Height (km)
Speed (km/s)
/
Latitude / Longitude
Inclination (degrees)
Orbital Period (minutes)
Azimuth
Elevation
Range (km)
Doppler Factor

Next 0 passes for location: London (51.5072 / 0.1276)

Sorry there are no passes over London.